Simultaneous Nadir Overpasses (SNOs) Predictions

Prediction of SNOs between AQUA and METOP-A Satellite Orbit:

Table of predicted SNOs for the next 14.0 days since TLE Epoch: 6/8/2013
Index Date (AQUA) Time (AQUA) Lat,Lon (AQUA) SZA (AQUA ) Date (METOP-A) Time (METOP-A) Lat,Lon (METOP-A) SZA (METOP-A ) Distance(km) Time Diff (sec)
1 06/10/2013 14:23:21 -73.85, 138.47 129.20 06/10/2013 14:22:27 -73.85, 138.41 129.20 1.90 54
2 06/10/2013 15:12:50 73.93, -54.07 50.88 06/10/2013 15:13:05 73.95, -54.02 50.90 2.23 15
3 06/10/2013 16:02:28 -74.57, 112.08 128.43 06/10/2013 16:03:34 -74.56, 114.87 128.54 82.75 66
4 06/13/2013 09:57:33 -73.84,-155.06 129.39 06/13/2013 09:56:48 -73.85,-155.17 129.37 3.65 45
5 06/13/2013 10:47:02 73.92, 12.40 50.70 06/13/2013 10:47:26 73.94, 12.39 50.72 2.15 24
6 06/16/2013 05:31:46 -73.89, -88.73 129.45 06/16/2013 05:31:08 -73.90, -88.64 129.44 2.93 38
7 06/16/2013 06:21:14 73.93, 78.83 50.59 06/16/2013 06:21:47 73.93, 78.78 50.59 1.51 33
8 06/19/2013 01:05:56 -73.86, -22.21 129.55 06/19/2013 01:05:28 -73.89, -22.23 129.51 3.09 28
9 06/19/2013 01:55:25 73.95, 145.23 50.55 06/19/2013 01:56:06 73.97, 145.29 50.56 2.64 41
10 06/21/2013 20:40:08 -73.90, 44.16 129.51 06/21/2013 20:39:49 -73.88, 44.16 129.53 2.20 19
11 06/21/2013 21:29:36 73.94,-148.29 50.53 06/21/2013 21:30:27 73.95,-148.33 50.54 1.67 51




NCC Satellite Simultaneous Nadir Overpasses (SNOs) Prediction Service
